Simultaneous Nadir Overpasses (SNOs) Predictions

Prediction of SNOs between AURA and NPP Satellite Orbit:

Table of predicted SNOs for the next 14.0 days since TLE Epoch: 10/5/2024
Index Date (AURA) Time (AURA) Lat,Lon (AURA) SZA (AURA ) Date (NPP) Time (NPP) Lat,Lon (NPP) SZA (NPP ) Distance(km) Time Diff (sec)
1 10/06/2024 12:47:02 -80.54, 77.29 84.99 10/06/2024 12:45:48 -80.61, 77.11 84.91 8.14 74
2 10/06/2024 13:36:12 80.86,-111.15 94.43 10/06/2024 13:36:20 80.86,-111.29 94.45 2.63 8
3 10/09/2024 01:40:08 -80.84,-112.39 84.62 10/09/2024 01:39:24 -80.84,-112.31 84.60 1.39 44
4 10/09/2024 02:29:28 80.88, 55.77 95.32 10/09/2024 02:30:06 80.89, 55.84 95.29 1.31 38
5 10/11/2024 14:33:18 -80.88, 54.79 83.77 10/11/2024 14:33:09 -80.88, 54.96 83.79 2.97 9
6 10/11/2024 15:22:35 80.99,-136.05 96.03 10/11/2024 15:23:48 80.97,-135.80 95.94 4.68 73
7 10/14/2024 02:37:03 80.82, 53.17 97.23 10/14/2024 02:36:13 80.83, 53.15 97.27 0.50 50
8 10/14/2024 03:26:24 -80.87,-138.54 82.85 10/14/2024 03:26:56 -80.87,-138.72 82.85 3.08 32



Historial Predications of SNOs between AURA and NPP
